Погода во Вараждине

Хорватия     46°18′42″N   16°20′17″E
темп.,
°C
ветер,
м/с
пор.,
м/с
влажн.,
%
обл.,
%
осадки,
мм/ч
давл.,
гПа
погр.,
м
17 августа, ср
ср1723:00+21юз22570 0.0 101116
02:00+20зюз22660 0.0 101213
05:00+18зюз22790 0.0 101220
08:00+22юз12680 0.0 1012152
11:00+29ююз23440 0.0 1012976
14:00+32юз34310 0.0 10112272
17:00+33зюз35303 0.0 10102511
20:00+25юз224876 0.0 101017
18 августа, чт
чт1823:00+23ююз311565 0.0 1010259
02:00+20юз24715 0.0 101083
05:00+20юз25741 0.0 1009105
08:00+23юз24630 0.0 1010181
11:00+32зюз473476 0.0 10101172
14:00+34юз4729100 0.0 10091656
17:00+35з582779 0.0 10082199
20:00+27юз234921 0.0 100832
19 августа, пт
пт1923:00+24ююз325875 0.0 100841
02:00+22юз11646 0.0 100814
05:00+19зюз2282100 0.1 100934
08:00+22юв1171100 0.1 101078
11:00+26ю374895 0.0 1009623
14:00+32ю47310 0.0 10071969
17:00+25юв475913 0.1 1007459
20:00+21ссв118072 0.4 100823
20 августа, сб
сб2023:00+19ю118865 0.5 101011
02:00+17с229550 4.3 101242
05:00+16сз239791 0.2 101289
08:00+18з1188100 0.2 1013124
11:00+21зюз0174100 0.0 1014272
14:00+26ссз3646100 0.0 10141583
17:00+24ссз595313 0.0 1014759
20:00+19с11693 0.0 101515
21 августа, вс
вс2123:00+17зсз11765 0.0 101511
02:00+16зсз11815 0.0 101612
05:00+16зсз118310 0.0 101511
08:00+19сз25680 0.0 1016269
11:00+26ссз48410 0.0 10151919
14:00+30ссв68270 0.0 10132702
17:00+29ссв68281 0.0 10122799
20:00+23ссв310380 0.0 1013287